Tracking 20942 objects as of 12-Jul-2020
HD Live streaming from Space Station
objects crossing your sky now

GORIZONT 2

Track GORIZONT 2 now!
GORIZONT 2 is classified as:


NORAD ID: 11440
Int'l Code: 1979-062A
Perigee: 35,788.4 km
Apogee: 35,797.8 km
Inclination: 10.9 °
Period: 1,436.1 minutes
Semi major axis: 42164 km
RCS: 3.981 m2 (large)
Launch date: July 5, 1979
Source: Commonwealth of Independent States (former USSR) (CIS)
Launch site: TYURATAM MISSILE AND SPACE COMPLEX (TTMTR)
aabbcc
Your satellite tracking list
Your tracking list is empty




NASA's NSSDC Master Catalog

Two Line Element Set (TLE):
1 11440U 79062A   20193.91918265 +.00000044 +00000-0 +00000-0 0  9998
2 11440 010.8507 310.2423 0001112 295.6284 075.0588 01.00274036116306
Source of the keplerian elements: AFSPC